Location: Delettes
(50.6178°N, 2.2123°E)
Time: 15:44:40
(UTC+00:00)

STARLINK-36 - Pass Details

Date: 27 February 2020
Orbit: 529 x 530 km, 53.0° (Epoch: 30 March)

Event Time Altitude Azimuth Distance (km) Brightness Sun altitude
Rises 19:23:53 0° 282° (WNW) 2,669 8.8 -19.1°
Reaches altitude 10° 19:26:07 10° 285° (WNW) 1,779 7.5 -19.4°
Maximum altitude 19:30:08 64° 8° (N) 590 3.7 -20.0°
Enters shadow 19:30:48 53° 57° (ENE) 654 3.7 -20.1°
